Diyarbakir, Turkey

5:31 PM +03 on April 19, 2018 (GMT +0300)
Diyarbakir

Weather History for LTCC - October, 2012

Change the Weather History Date:

Saturday, October 20, 2012

  Actual Average Record
Temperature  
Mean Temperature 59 °F -  
Max Temperature 68 °F 66 °F 86 °F (2004)
Min Temperature 50 °F 44 °F 40 °F (2014)
Degree Days  
Heating Degree Days 6    
Growing Degree Days 9 (Base 50)    
Moisture  
Dew Point 44 °F    
Average Humidity 57    
Maximum Humidity 88    
Minimum Humidity 25    
Precipitation  
Precipitation 0.02 in 0.06 in - ()
Sea Level Pressure  
Sea Level Pressure 30.11 in    
Wind  
Wind Speed 5 mph ()    
Max Wind Speed 16 mph    
Max Gust Speed -    
Visibility 6.4 miles    
Events Rain    
Averages and records for this station are not official NWS values.
T = Trace of Precipitation, MM = Missing Value Source: Averaged Metar Reports

Daily Weather History Graph

Daily Weather History Graph

Search for Another Location

Airport or City:

Astronomy

Oct. 20, 2012 Rise Set
Actual Time 6:32 AM EEST 5:34 PM EEST
Civil Twilight 6:05 AM EEST 6:01 PM EEST
Nautical Twilight 5:35 AM EEST 6:31 PM EEST
Astronomical Twilight 5:04 AM EEST 7:02 PM EEST
Moon 11:47 AM EEST (10/20) 9:59 PM EEST (10/20)
Length of Visible Light 11h 55m
Length of Day
11h 02m
Waxing Crescent, 31% of the Moon is Illuminated
Oct 20
Waxing Crescent
Oct 22
First Quarter
Oct 29
Full
Nov 7
Last Quarter
Nov 14
New

Hourly Weather History & Observations

Time (EEST) Temp. Dew Point Humidity Pressure Visibility Wind Dir Wind Speed Gust Speed Precip Events Conditions
12:20 AM 59.0 °F 33.8 °F 39% 30.04 in - ENE 4.6 mph - N/A   Clear
12:50 AM 57.2 °F 32.0 °F 38% 30.04 in - Calm Calm - N/A   Clear
1:20 AM 55.4 °F 32.0 °F 41% 30.04 in - West 4.6 mph - N/A   Clear
1:50 AM 53.6 °F 30.2 °F 41% 30.04 in 6.2 mi WNW 3.5 mph - N/A   Partly Cloudy
2:20 AM 53.6 °F 28.4 °F 38% 30.04 in 6.2 mi Variable 1.2 mph - N/A   Partly Cloudy
3:00 AM 54 °F 29 °F 25% 29.96 in 12 mi West 6.9 mph - -   Scattered Clouds
3:20 AM 53.6 °F 28.4 °F 38% 30.04 in 6.2 mi West 3.5 mph - N/A   Partly Cloudy
3:50 AM 53.6 °F 28.4 °F 38% 30.04 in 6.2 mi West 6.9 mph - N/A   Partly Cloudy
4:20 AM 55.4 °F 28.4 °F 36% 30.06 in 6.2 mi SW 9.2 mph - N/A   Scattered Clouds
4:50 AM 55.4 °F 28.4 °F 36% 30.06 in 6.2 mi Variable 2.3 mph - N/A   Scattered Clouds
5:20 AM 51.8 °F 28.4 °F 41% 30.06 in 6.2 mi NW 4.6 mph - N/A   Scattered Clouds
5:50 AM 51.8 °F 28.4 °F 41% 30.06 in 6.2 mi South 11.5 mph - N/A   Scattered Clouds
6:20 AM 55.4 °F 30.2 °F 38% 30.06 in 6.2 mi Calm Calm - N/A   Scattered Clouds
6:50 AM 51.8 °F 28.4 °F 41% 30.06 in 6.2 mi NNW 4.6 mph - N/A   Scattered Clouds
7:20 AM 53.6 °F 30.2 °F 41% 30.06 in 6.2 mi Variable 1.2 mph - N/A   Scattered Clouds
7:50 AM 57.2 °F 33.8 °F 41% 30.09 in 6.2 mi Variable 3.5 mph - N/A   Mostly Cloudy
8:20 AM 59.0 °F 33.8 °F 39% 30.09 in 6.2 mi Calm Calm - N/A   Mostly Cloudy
8:50 AM 62.6 °F 39.2 °F 42% 30.09 in 6.2 mi ENE 4.6 mph - N/A   Scattered Clouds
9:00 AM 63 °F 39 °F 29% 30.05 in 6 mi ENE 4.6 mph - -   Mostly Cloudy
9:20 AM 62.6 °F 44.6 °F 52% 30.12 in 6.2 mi ENE 6.9 mph - N/A   Scattered Clouds
9:50 AM 62.6 °F 41.0 °F 45% 30.12 in 6.2 mi SSE 10.4 mph - N/A   Mostly Cloudy
10:20 AM 66.2 °F 50.0 °F 56% 30.15 in 6.2 mi SE 12.7 mph - N/A   Mostly Cloudy
10:50 AM 66.2 °F 48.2 °F 52% 30.15 in 6.2 mi East 15.0 mph - N/A   Mostly Cloudy
11:20 AM 64.4 °F 50.0 °F 59% 30.18 in 6.2 mi East 15.0 mph - N/A   Mostly Cloudy
11:50 AM 68.0 °F 50.0 °F 52% 30.15 in 6.2 mi East 16.1 mph - N/A   Mostly Cloudy
12:20 PM 68.0 °F 50.0 °F 52% 30.15 in 6.2 mi East 12.7 mph - N/A   Mostly Cloudy
12:50 PM 66.2 °F 51.8 °F 60% 30.15 in 6.2 mi SE 12.7 mph - N/A   Mostly Cloudy
1:20 PM 66.2 °F 51.8 °F 60% 30.18 in 6.2 mi SSE 8.1 mph - N/A   Mostly Cloudy
1:50 PM 64.4 °F 50.0 °F 59% 30.18 in 6.2 mi SE 9.2 mph - N/A Rain Light Rain Showers
2:20 PM 62.6 °F 53.6 °F 72% 30.15 in 6.2 mi ESE 10.4 mph - N/A Rain Light Rain Showers
2:50 PM 64.4 °F 53.6 °F 68% 30.12 in 6.2 mi ESE 10.4 mph - N/A Rain Light Rain Showers
3:00 PM 64 °F 53 °F 57% 30.10 in 6 mi ESE 10.4 mph - - Rain Light Rain Showers
3:20 PM 64.4 °F 53.6 °F 68% 30.12 in 6.2 mi ESE 10.4 mph - N/A   Mostly Cloudy
3:50 PM 64.4 °F 51.8 °F 64% 30.12 in 6.2 mi ESE 9.2 mph - N/A   Mostly Cloudy
4:20 PM 64.4 °F 51.8 °F 64% 30.12 in 6.2 mi ESE 6.9 mph - N/A   Mostly Cloudy
4:50 PM 64.4 °F 51.8 °F 64% 30.12 in 6.2 mi East 4.6 mph - N/A   Mostly Cloudy
5:20 PM 62.6 °F 51.8 °F 68% 30.12 in 6.2 mi East 3.5 mph - N/A   Mostly Cloudy
5:50 PM 60.8 °F 51.8 °F 72% 30.12 in 6.2 mi Variable 2.3 mph - N/A   Mostly Cloudy
6:20 PM 60.8 °F 51.8 °F 72% 30.15 in 6.2 mi Variable 2.3 mph - N/A   Mostly Cloudy
6:50 PM 60.8 °F 51.8 °F 72% 30.15 in 6.2 mi West 3.5 mph - N/A   Mostly Cloudy
7:20 PM 60.8 °F 53.6 °F 77% 30.15 in 6.2 mi NNW 4.6 mph - N/A   Mostly Cloudy
7:50 PM 60.8 °F 51.8 °F 72% 30.15 in 6.2 mi North 3.5 mph - N/A   Mostly Cloudy
8:20 PM 59.0 °F 51.8 °F 77% 30.15 in 6.2 mi West 5.8 mph - N/A   Mostly Cloudy
8:50 PM 60.8 °F 53.6 °F 77% 30.15 in 6.2 mi SW 9.2 mph - N/A Rain Light Rain Showers
9:00 PM 60 °F 53 °F 72% 30.12 in 12 mi SW 9.2 mph - - Rain Light Rain Showers
9:20 PM 59.0 °F 55.4 °F 88% 30.15 in 6.2 mi WSW 4.6 mph - N/A Rain Light Rain Showers
9:50 PM 59.0 °F 55.4 °F 88% 30.12 in 6.2 mi ENE 9.2 mph - N/A Rain Light Rain Showers
10:20 PM 59.0 °F 53.6 °F 82% 30.12 in 6.2 mi East 5.8 mph - N/A   Mostly Cloudy
10:50 PM 59.0 °F 53.6 °F 82% 30.12 in 6.2 mi Variable 2.3 mph - N/A   Mostly Cloudy
11:20 PM 57.2 °F 53.6 °F 88% 30.12 in 6.2 mi Calm Calm - N/A   Mostly Cloudy
11:50 PM 57.2 °F 53.6 °F 88% 30.12 in 6.2 mi NNW 4.6 mph - N/A   Mostly Cloudy